TimePDT,TemperatureF,Dew PointF,Humidity,Sea Level PressureIn,VisibilityMPH,Wind Direction,Wind SpeedMPH,Gust SpeedMPH,PrecipitationIn,Events,Conditions,WindDirDegrees,DateUTC
12:56 AM,34.0,30.0,85,29.65,10.0,SSE,3.5,-,N/A,,Overcast,160,2014-04-01 07:56:00
1:56 AM,36.0,30.0,79,29.66,10.0,Calm,Calm,-,N/A,,Mostly Cloudy,0,2014-04-01 08:56:00
2:56 AM,35.1,30.0,82,29.67,10.0,Calm,Calm,-,N/A,,Overcast,0,2014-04-01 09:56:00
3:37 AM,37.0,30.9,79,29.66,10.0,WNW,10.4,-,0.00,Rain,Light Rain,300,2014-04-01 10:37:00
3:56 AM,37.0,30.9,79,29.67,10.0,WNW,13.8,-,0.00,Rain,Light Rain,290,2014-04-01 10:56:00
4:56 AM,35.1,30.9,85,29.68,10.0,WNW,10.4,-,0.01,Rain,Light Rain,290,2014-04-01 11:56:00
5:56 AM,35.1,30.0,82,29.70,8.0,NW,11.5,-,0.01,Snow,Light Snow,310,2014-04-01 12:56:00
6:30 AM,34.0,28.0,79,29.69,2.0,West,12.7,24.2,0.00,Snow,Light Snow,260,2014-04-01 13:30:00
6:52 AM,33.8,26.6,75,29.70,4.0,West,15.0,-,0.01,Snow,Light Snow,270,2014-04-01 13:52:00
6:56 AM,34.0,26.1,73,29.73,4.0,West,15.0,-,0.01,Snow,Light Snow,270,2014-04-01 13:56:00
7:12 AM,34.0,27.0,75,29.71,2.5,West,13.8,-,0.00,Snow,Light Snow,270,2014-04-01 14:12:00
7:30 AM,34.0,27.0,75,29.71,4.0,West,10.4,-,0.00,Snow,Light Snow,260,2014-04-01 14:30:00
7:56 AM,33.1,28.9,85,29.75,10.0,SSW,3.5,-,0.00,,Overcast,210,2014-04-01 14:56:00
8:37 AM,33.1,30.9,92,29.73,2.5,SSW,6.9,-,0.00,Snow,Light Snow,200,2014-04-01 15:37:00
8:49 AM,33.1,30.0,89,29.73,1.5,SW,6.9,-,0.00,Snow,Light Snow,220,2014-04-01 15:49:00
8:56 AM,33.1,30.0,89,29.77,1.5,SW,6.9,-,0.00,Snow,Light Snow,230,2014-04-01 15:56:00
9:26 AM,33.1,30.0,89,29.75,2.5,WSW,8.1,-,0.00,Snow,Light Snow,250,2014-04-01 16:26:00
9:32 AM,33.1,30.0,89,29.75,2.5,WSW,10.4,-,0.00,Snow,Light Snow,250,2014-04-01 16:32:00
9:49 AM,33.1,30.0,89,29.75,2.5,West,9.2,-,0.00,Snow,Light Snow,270,2014-04-01 16:49:00
9:56 AM,33.1,30.0,89,29.79,2.0,West,9.2,-,0.00,Snow,Light Snow,270,2014-04-01 16:56:00
10:03 AM,33.1,30.0,89,29.76,1.5,West,8.1,-,0.00,Snow,Light Snow,280,2014-04-01 17:03:00
10:56 AM,32.0,30.0,92,29.81,1.5,West,3.5,-,0.02,Snow,Light Snow,280,2014-04-01 17:56:00
11:03 AM,33.1,30.0,89,29.77,1.2,NW,6.9,-,0.00,Snow,Light Snow,310,2014-04-01 18:03:00
11:40 AM,32.0,30.0,92,29.78,0.8,WNW,4.6,-,0.02,Snow,Light Snow,300,2014-04-01 18:40:00
11:56 AM,32.0,30.9,96,29.83,0.8,NW,3.5,-,0.03,Snow,Light Snow,320,2014-04-01 18:56:00
12:56 PM,33.1,30.9,92,29.83,0.5,Calm,Calm,-,0.05,Fog-Snow,Snow,0,2014-04-01 19:56:00
1:15 PM,33.1,30.9,92,29.79,0.8,West,3.5,-,0.01,Snow,Light Snow,270,2014-04-01 20:15:00
1:56 PM,33.1,30.9,92,29.83,1.0,West,4.6,-,0.04,Snow,Light Snow,270,2014-04-01 20:56:00
2:48 PM,33.1,32.0,96,29.79,2.5,West,6.9,-,0.03,Snow,Light Snow,280,2014-04-01 21:48:00
2:56 PM,34.0,32.0,92,29.83,2.0,West,8.1,-,0.03,Snow,Light Snow,280,2014-04-01 21:56:00
3:10 PM,34.0,32.0,92,29.79,2.0,West,6.9,-,0.01,Snow,Light Snow,280,2014-04-01 22:10:00
3:18 PM,34.0,32.0,92,29.79,2.0,West,5.8,-,0.02,Snow,Light Snow,270,2014-04-01 22:18:00
3:56 PM,35.1,33.1,92,29.83,5.0,West,10.4,-,0.04,Rain,Light Rain,280,2014-04-01 22:56:00
4:56 PM,36.0,34.0,93,29.83,8.0,WNW,6.9,-,0.02,Rain,Light Rain,300,2014-04-01 23:56:00
5:56 PM,37.0,34.0,89,29.83,10.0,WNW,8.1,-,0.03,Rain,Light Rain,290,2014-04-02 00:56:00
5:58 PM,37.0,34.0,89,29.79,10.0,WNW,8.1,-,0.00,Rain,Light Rain,290,2014-04-02 00:58:00
6:56 PM,37.0,34.0,89,29.84,10.0,West,5.8,-,0.00,Rain,Light Rain,260,2014-04-02 01:56:00
7:56 PM,37.0,35.1,93,29.85,10.0,Calm,Calm,-,0.00,Rain,Light Rain,0,2014-04-02 02:56:00
8:11 PM,37.0,35.1,93,29.81,10.0,Calm,Calm,-,0.00,,Overcast,0,2014-04-02 03:11:00
8:56 PM,35.1,34.0,96,29.86,10.0,Calm,Calm,-,0.00,,Overcast,0,2014-04-02 03:56:00
9:56 PM,35.1,33.1,92,29.88,10.0,SSE,3.5,-,N/A,,Overcast,160,2014-04-02 04:56:00
10:06 PM,35.1,33.1,92,29.84,10.0,Calm,Calm,-,N/A,,Overcast,0,2014-04-02 05:06:00
10:56 PM,34.0,33.1,96,29.89,10.0,Calm,Calm,-,N/A,,Overcast,0,2014-04-02 05:56:00
11:56 PM,32.0,30.0,92,29.90,10.0,SSE,3.5,-,N/A,,Mostly Cloudy,150,2014-04-02 06:56:00